Time,TemperatureF,DewpointF,PressureIn,WindDirection,WindDirectionDegrees,WindSpeedMPH,WindSpeedGustMPH,Humidity,HourlyPrecipIn,Conditions,Clouds,dailyrainin,SoftwareType,DateUTC
2013-09-06 00:04:00,74.0,-99.9,0.00,SSE,148,13.0,16.0,-999,0.00,,,-99.99,,2013-09-06 05:04:00,
2013-09-06 00:09:00,74.0,-99.9,0.00,SE,134,14.0,16.0,-999,0.00,,,-99.99,,2013-09-06 05:09:00,
2013-09-06 00:14:00,74.0,-99.9,0.00,SSE,158,13.0,15.0,-999,0.00,,,-99.99,,2013-09-06 05:14:00,
2013-09-06 00:19:00,74.0,-99.9,0.00,SSE,158,13.0,15.0,-999,0.00,,,-99.99,,2013-09-06 05:19:00,
2013-09-06 00:24:00,74.0,-99.9,0.00,SSE,152,13.0,15.0,-999,0.00,,,-99.99,,2013-09-06 05:24:00,
2013-09-06 00:29:00,73.0,-99.9,0.00,SSE,162,12.0,15.0,-999,0.00,,,-99.99,,2013-09-06 05:29:00,
2013-09-06 00:34:00,73.0,-99.9,0.00,SSE,158,12.0,15.0,-999,0.00,,,-99.99,,2013-09-06 05:34:00,
2013-09-06 00:39:00,74.0,-99.9,0.00,SSE,152,13.0,16.0,-999,0.00,,,-99.99,,2013-09-06 05:39:00,
2013-09-06 00:44:00,74.0,-99.9,0.00,SSE,164,13.0,16.0,-999,0.00,,,-99.99,,2013-09-06 05:44:00,
2013-09-06 00:49:00,74.0,-99.9,0.00,SSE,159,13.0,17.0,-999,0.00,,,-99.99,,2013-09-06 05:49:00,
2013-09-06 00:54:00,73.0,-99.9,0.00,SSE,158,13.0,16.0,-999,0.00,,,-99.99,,2013-09-06 05:54:00,
2013-09-06 00:59:00,73.0,-99.9,0.00,South,172,14.0,18.0,-999,0.00,,,-99.99,,2013-09-06 05:59:00,
2013-09-06 01:04:00,73.0,-99.9,0.00,SE,144,14.0,16.0,-999,0.00,,,-99.99,,2013-09-06 06:04:00,
2013-09-06 01:09:00,73.0,-99.9,0.00,SSE,164,14.0,16.0,-999,0.00,,,-99.99,,2013-09-06 06:09:00,
2013-09-06 01:14:00,73.0,-99.9,0.00,SSE,168,14.0,17.0,-999,0.00,,,-99.99,,2013-09-06 06:14:00,
2013-09-06 01:19:00,73.0,-99.9,0.00,South,171,14.0,17.0,-999,0.00,,,-99.99,,2013-09-06 06:19:00,
2013-09-06 01:24:00,73.0,-99.9,0.00,SSE,158,13.0,16.0,-999,0.00,,,-99.99,,2013-09-06 06:24:00,
2013-09-06 01:29:00,72.0,-99.9,0.00,SSE,157,13.0,17.0,-999,0.00,,,-99.99,,2013-09-06 06:29:00,
2013-09-06 01:34:00,72.0,-99.9,0.00,SE,137,12.0,14.0,-999,0.00,,,-99.99,,2013-09-06 06:34:00,
2013-09-06 01:39:00,72.0,-99.9,0.00,SE,144,12.0,15.0,-999,0.00,,,-99.99,,2013-09-06 06:39:00,
2013-09-06 01:44:00,72.0,-99.9,0.00,SSE,149,13.0,16.0,-999,0.00,,,-99.99,,2013-09-06 06:44:00,
2013-09-06 01:49:00,72.0,-99.9,0.00,SSE,159,13.0,15.0,-999,0.00,,,-99.99,,2013-09-06 06:49:00,
2013-09-06 01:54:00,72.0,-99.9,0.00,SE,142,12.0,15.0,-999,0.00,,,-99.99,,2013-09-06 06:54:00,
2013-09-06 01:59:00,72.0,-99.9,0.00,SSE,157,12.0,15.0,-999,0.00,,,-99.99,,2013-09-06 06:59:00,
2013-09-06 02:04:00,72.0,-99.9,0.00,SSE,159,13.0,14.0,-999,0.00,,,-99.99,,2013-09-06 07:04:00,
2013-09-06 02:09:00,71.0,-99.9,0.00,SSE,165,13.0,15.0,-999,0.00,,,-99.99,,2013-09-06 07:09:00,
2013-09-06 02:14:00,71.0,-99.9,0.00,SSE,166,13.0,15.0,-999,0.00,,,-99.99,,2013-09-06 07:14:00,
2013-09-06 02:19:00,71.0,-99.9,0.00,SSE,155,12.0,15.0,-999,0.00,,,-99.99,,2013-09-06 07:19:00,
2013-09-06 02:24:00,71.0,-99.9,0.00,SSE,164,13.0,15.0,-999,0.00,,,-99.99,,2013-09-06 07:24:00,
2013-09-06 02:29:00,71.0,-99.9,0.00,SSE,162,12.0,14.0,-999,0.00,,,-99.99,,2013-09-06 07:29:00,
2013-09-06 02:34:00,71.0,-99.9,0.00,SSE,161,11.0,14.0,-999,0.00,,,-99.99,,2013-09-06 07:34:00,
2013-09-06 02:39:00,70.0,-99.9,0.00,SSE,157,11.0,13.0,-999,0.00,,,-99.99,,2013-09-06 07:39:00,
2013-09-06 02:44:00,70.0,-99.9,0.00,SSE,155,10.0,13.0,-999,0.00,,,-99.99,,2013-09-06 07:44:00,
2013-09-06 02:49:00,69.0,-99.9,0.00,SE,145,10.0,12.0,-999,0.00,,,-99.99,,2013-09-06 07:49:00,
2013-09-06 02:54:00,70.0,-99.9,0.00,SSE,157,10.0,12.0,-999,0.00,,,-99.99,,2013-09-06 07:54:00,
2013-09-06 02:59:00,70.0,-99.9,0.00,SSE,162,11.0,13.0,-999,0.00,,,-99.99,,2013-09-06 07:59:00,
2013-09-06 03:04:00,69.0,-99.9,0.00,SSE,154,10.0,12.0,-999,0.00,,,-99.99,,2013-09-06 08:04:00,
2013-09-06 03:09:00,69.0,-99.9,0.00,SSE,155,10.0,12.0,-999,0.00,,,-99.99,,2013-09-06 08:09:00,
2013-09-06 03:14:00,69.0,-99.9,0.00,SSE,157,10.0,12.0,-999,0.00,,,-99.99,,2013-09-06 08:14:00,
2013-09-06 03:19:00,69.0,-99.9,0.00,SSE,158,10.0,12.0,-999,0.00,,,-99.99,,2013-09-06 08:19:00,
2013-09-06 03:24:00,68.0,-99.9,0.00,SSE,155,10.0,11.0,-999,0.00,,,-99.99,,2013-09-06 08:24:00,
2013-09-06 03:29:00,68.0,-99.9,0.00,SSE,159,10.0,12.0,-999,0.00,,,-99.99,,2013-09-06 08:29:00,
2013-09-06 03:34:00,68.0,-99.9,0.00,SSE,161,10.0,11.0,-999,0.00,,,-99.99,,2013-09-06 08:34:00,
2013-09-06 03:39:00,67.0,-99.9,0.00,SSE,162,10.0,11.0,-999,0.00,,,-99.99,,2013-09-06 08:39:00,
2013-09-06 03:44:00,67.0,-99.9,0.00,SSE,152,10.0,11.0,-999,0.00,,,-99.99,,2013-09-06 08:44:00,
2013-09-06 03:49:00,66.0,-99.9,0.00,SSE,161,10.0,11.0,-999,0.00,,,-99.99,,2013-09-06 08:49:00,
2013-09-06 03:54:00,66.0,-99.9,0.00,SSE,164,10.0,11.0,-999,0.00,,,-99.99,,2013-09-06 08:54:00,
2013-09-06 03:59:00,66.0,-99.9,0.00,SSE,162,10.0,11.0,-999,0.00,,,-99.99,,2013-09-06 08:59:00,
2013-09-06 04:04:00,65.0,-99.9,0.00,SSE,159,10.0,11.0,-999,0.00,,,-99.99,,2013-09-06 09:04:00,
2013-09-06 04:09:00,65.0,-99.9,0.00,SSE,161,10.0,11.0,-999,0.00,,,-99.99,,2013-09-06 09:09:00,
2013-09-06 04:14:00,65.0,-99.9,0.00,SSE,168,11.0,12.0,-999,0.00,,,-99.99,,2013-09-06 09:14:00,
2013-09-06 04:19:00,65.0,-99.9,0.00,SSE,168,11.0,12.0,-999,0.00,,,-99.99,,2013-09-06 09:19:00,
2013-09-06 04:24:00,65.0,-99.9,0.00,SSE,165,11.0,11.0,-999,0.00,,,-99.99,,2013-09-06 09:24:00,
2013-09-06 04:29:00,65.0,-99.9,0.00,SSE,164,11.0,11.0,-999,0.00,,,-99.99,,2013-09-06 09:29:00,
2013-09-06 04:34:00,65.0,-99.9,0.00,South,169,11.0,12.0,-999,0.00,,,-99.99,,2013-09-06 09:34:00,
2013-09-06 04:39:00,65.0,-99.9,0.00,SSE,158,12.0,13.0,-999,0.00,,,-99.99,,2013-09-06 09:39:00,
2013-09-06 04:44:00,66.0,-99.9,0.00,SSE,165,12.0,13.0,-999,0.00,,,-99.99,,2013-09-06 09:44:00,
2013-09-06 04:49:00,66.0,-99.9,0.00,SSE,166,12.0,14.0,-999,0.00,,,-99.99,,2013-09-06 09:49:00,
2013-09-06 04:54:00,66.0,-99.9,0.00,South,169,12.0,14.0,-999,0.00,,,-99.99,,2013-09-06 09:54:00,
2013-09-06 04:59:00,66.0,-99.9,0.00,South,172,12.0,13.0,-999,0.00,,,-99.99,,2013-09-06 09:59:00,
2013-09-06 05:04:00,66.0,-99.9,0.00,SSE,166,12.0,13.0,-999,0.00,,,-99.99,,2013-09-06 10:04:00,
2013-09-06 05:09:00,66.0,-99.9,0.00,SSE,162,12.0,13.0,-999,0.00,,,-99.99,,2013-09-06 10:09:00,
2013-09-06 05:14:00,66.0,-99.9,0.00,South,169,12.0,14.0,-999,0.00,,,-99.99,,2013-09-06 10:14:00,
2013-09-06 05:19:00,66.0,-99.9,0.00,South,169,12.0,13.0,-999,0.00,,,-99.99,,2013-09-06 10:19:00,
2013-09-06 05:24:00,66.0,-99.9,0.00,South,169,11.0,13.0,-999,0.00,,,-99.99,,2013-09-06 10:24:00,
2013-09-06 05:29:00,66.0,-99.9,0.00,South,172,11.0,13.0,-999,0.00,,,-99.99,,2013-09-06 10:29:00,
2013-09-06 05:34:00,66.0,-99.9,0.00,South,173,12.0,15.0,-999,0.00,,,-99.99,,2013-09-06 10:34:00,
2013-09-06 05:39:00,66.0,-99.9,0.00,SSE,166,12.0,14.0,-999,0.00,,,-99.99,,2013-09-06 10:39:00,
2013-09-06 05:44:00,67.0,-99.9,0.00,SSE,166,13.0,14.0,-999,0.00,,,-99.99,,2013-09-06 10:44:00,
2013-09-06 05:49:00,66.0,-99.9,0.00,South,182,13.0,14.0,-999,0.00,,,-99.99,,2013-09-06 10:49:00,
2013-09-06 05:54:00,67.0,-99.9,0.00,South,179,13.0,15.0,-999,0.00,,,-99.99,,2013-09-06 10:54:00,
2013-09-06 05:59:00,67.0,-99.9,0.00,South,178,13.0,15.0,-999,0.00,,,-99.99,,2013-09-06 10:59:00,
2013-09-06 06:04:00,67.0,-99.9,0.00,South,173,13.0,15.0,-999,0.00,,,-99.99,,2013-09-06 11:04:00,
2013-09-06 06:09:00,67.0,-99.9,0.00,South,173,14.0,16.0,-999,0.00,,,-99.99,,2013-09-06 11:09:00,
2013-09-06 06:14:00,67.0,-99.9,0.00,South,179,13.0,15.0,-999,0.00,,,-99.99,,2013-09-06 11:14:00,
2013-09-06 06:19:00,67.0,-99.9,0.00,South,190,14.0,15.0,-999,0.00,,,-99.99,,2013-09-06 11:19:00,
2013-09-06 06:24:00,67.0,-99.9,0.00,South,186,14.0,16.0,-999,0.00,,,-99.99,,2013-09-06 11:24:00,
2013-09-06 06:29:00,68.0,-99.9,0.00,SSW,192,14.0,17.0,-999,0.00,,,-99.99,,2013-09-06 11:29:00,
2013-09-06 06:34:00,68.0,-99.9,0.00,South,185,14.0,17.0,-999,0.00,,,-99.99,,2013-09-06 11:34:00,
2013-09-06 06:39:00,68.0,-99.9,0.00,South,176,14.0,17.0,-999,0.00,,,-99.99,,2013-09-06 11:39:00,
2013-09-06 06:44:00,68.0,-99.9,0.00,South,190,14.0,17.0,-999,0.00,,,-99.99,,2013-09-06 11:44:00,
2013-09-06 06:49:00,68.0,-99.9,0.00,South,186,14.0,17.0,-999,0.00,,,-99.99,,2013-09-06 11:49:00,
2013-09-06 06:54:00,68.0,-99.9,0.00,SSW,192,14.0,17.0,-999,0.00,,,-99.99,,2013-09-06 11:54:00,
2013-09-06 06:59:00,68.0,-99.9,0.00,South,185,15.0,17.0,-999,0.00,,,-99.99,,2013-09-06 11:59:00,
2013-09-06 07:04:00,68.0,-99.9,0.00,South,186,15.0,17.0,-999,0.00,,,-99.99,,2013-09-06 12:04:00,
2013-09-06 07:09:00,68.0,-99.9,0.00,South,180,14.0,17.0,-999,0.00,,,-99.99,,2013-09-06 12:09:00,
2013-09-06 07:14:00,67.0,-99.9,0.00,South,179,15.0,17.0,-999,0.00,,,-99.99,,2013-09-06 12:14:00,
2013-09-06 07:19:00,67.0,-99.9,0.00,South,186,14.0,17.0,-999,0.00,,,-99.99,,2013-09-06 12:19:00,
2013-09-06 07:24:00,67.0,-99.9,0.00,South,183,15.0,17.0,-999,0.00,,,-99.99,,2013-09-06 12:24:00,
2013-09-06 07:29:00,67.0,-99.9,0.00,South,179,15.0,18.0,-999,0.00,,,-99.99,,2013-09-06 12:29:00,
2013-09-06 07:34:00,68.0,-99.9,0.00,South,175,15.0,17.0,-999,0.00,,,-99.99,,2013-09-06 12:34:00,
2013-09-06 07:39:00,68.0,-99.9,0.00,South,172,14.0,17.0,-999,0.00,,,-99.99,,2013-09-06 12:39:00,
2013-09-06 07:44:00,68.0,-99.9,0.00,SSW,192,14.0,17.0,-999,0.00,,,-99.99,,2013-09-06 12:44:00,
2013-09-06 07:49:00,68.0,-99.9,0.00,South,178,14.0,16.0,-999,0.00,,,-99.99,,2013-09-06 12:49:00,
2013-09-06 07:54:00,68.0,-99.9,0.00,South,188,14.0,16.0,-999,0.00,,,-99.99,,2013-09-06 12:54:00,
2013-09-06 07:59:00,68.0,-99.9,0.00,South,190,15.0,17.0,-999,0.00,,,-99.99,,2013-09-06 12:59:00,
2013-09-06 08:04:00,69.0,-99.9,0.00,South,188,14.0,17.0,-999,0.00,,,-99.99,,2013-09-06 13:04:00,
2013-09-06 08:09:00,69.0,-99.9,0.00,South,183,13.0,16.0,-999,0.00,,,-99.99,,2013-09-06 13:09:00,
2013-09-06 08:14:00,70.0,-99.9,0.00,South,175,15.0,18.0,-999,0.00,,,-99.99,,2013-09-06 13:14:00,
2013-09-06 08:19:00,70.0,-99.9,0.00,South,185,15.0,18.0,-999,0.00,,,-99.99,,2013-09-06 13:19:00,
2013-09-06 08:24:00,71.0,-99.9,0.00,South,178,15.0,18.0,-999,0.00,,,-99.99,,2013-09-06 13:24:00,
2013-09-06 08:29:00,71.0,-99.9,0.00,SSW,193,15.0,18.0,-999,0.00,,,-99.99,,2013-09-06 13:29:00,
2013-09-06 08:34:00,72.0,-99.9,0.00,SSW,199,15.0,18.0,-999,0.00,,,-99.99,,2013-09-06 13:34:00,
2013-09-06 08:39:00,73.0,-99.9,0.00,SSW,199,15.0,18.0,-999,0.00,,,-99.99,,2013-09-06 13:39:00,
2013-09-06 08:44:00,73.0,-99.9,0.00,South,175,15.0,18.0,-999,0.00,,,-99.99,,2013-09-06 13:44:00,
2013-09-06 08:49:00,74.0,-99.9,0.00,South,180,16.0,18.0,-999,0.00,,,-99.99,,2013-09-06 13:49:00,
2013-09-06 08:54:00,74.0,-99.9,0.00,South,173,16.0,20.0,-999,0.00,,,-99.99,,2013-09-06 13:54:00,
2013-09-06 08:59:00,75.0,-99.9,0.00,South,185,17.0,19.0,-999,0.00,,,-99.99,,2013-09-06 13:59:00,
2013-09-06 09:04:00,75.0,-99.9,0.00,South,183,14.0,18.0,-999,0.00,,,-99.99,,2013-09-06 14:04:00,
2013-09-06 09:09:00,76.0,-99.9,0.00,South,188,15.0,18.0,-999,0.00,,,-99.99,,2013-09-06 14:09:00,
2013-09-06 09:14:00,77.0,-99.9,0.00,South,180,15.0,17.0,-999,0.00,,,-99.99,,2013-09-06 14:14:00,
2013-09-06 09:19:00,77.0,-99.9,0.00,South,185,15.0,18.0,-999,0.00,,,-99.99,,2013-09-06 14:19:00,
2013-09-06 09:24:00,78.0,-99.9,0.00,SSW,196,14.0,17.0,-999,0.00,,,-99.99,,2013-09-06 14:24:00,
2013-09-06 09:29:00,79.0,-99.9,0.00,SSW,200,15.0,17.0,-999,0.00,,,-99.99,,2013-09-06 14:29:00,
2013-09-06 09:34:00,80.0,-99.9,0.00,SSW,196,15.0,17.0,-999,0.00,,,-99.99,,2013-09-06 14:34:00,
2013-09-06 09:39:00,80.0,-99.9,0.00,South,175,17.0,19.0,-999,0.00,,,-99.99,,2013-09-06 14:39:00,
2013-09-06 09:44:00,80.0,-99.9,0.00,SSW,200,16.0,19.0,-999,0.00,,,-99.99,,2013-09-06 14:44:00,
2013-09-06 09:49:00,81.0,-99.9,0.00,SSW,193,15.0,18.0,-999,0.00,,,-99.99,,2013-09-06 14:49:00,
2013-09-06 09:54:00,81.0,-99.9,0.00,South,189,17.0,18.0,-999,0.00,,,-99.99,,2013-09-06 14:54:00,
2013-09-06 09:59:00,82.0,-99.9,0.00,SSW,196,17.0,19.0,-999,0.00,,,-99.99,,2013-09-06 14:59:00,
2013-09-06 10:04:00,82.0,-99.9,0.00,South,175,16.0,19.0,-999,0.00,,,-99.99,,2013-09-06 15:04:00,
2013-09-06 10:09:00,83.0,-99.9,0.00,SSW,197,15.0,17.0,-999,0.00,,,-99.99,,2013-09-06 15:09:00,
2013-09-06 10:14:00,83.0,-99.9,0.00,South,189,16.0,18.0,-999,0.00,,,-99.99,,2013-09-06 15:14:00,
2013-09-06 10:19:00,84.0,-99.9,0.00,South,178,15.0,18.0,-999,0.00,,,-99.99,,2013-09-06 15:19:00,
2013-09-06 10:24:00,85.0,-99.9,0.00,SSW,192,15.0,17.0,-999,0.00,,,-99.99,,2013-09-06 15:24:00,
2013-09-06 10:29:00,85.0,-99.9,0.00,South,179,15.0,18.0,-999,0.00,,,-99.99,,2013-09-06 15:29:00,
2013-09-06 10:34:00,85.0,-99.9,0.00,SSW,197,15.0,18.0,-999,0.00,,,-99.99,,2013-09-06 15:34:00,
2013-09-06 10:39:00,86.0,-99.9,0.00,SSW,192,15.0,16.0,-999,0.00,,,-99.99,,2013-09-06 15:39:00,
2013-09-06 10:44:00,87.0,-99.9,0.00,South,185,15.0,17.0,-999,0.00,,,-99.99,,2013-09-06 15:44:00,
2013-09-06 10:49:00,88.0,-99.9,0.00,SSW,195,15.0,18.0,-999,0.00,,,-99.99,,2013-09-06 15:49:00,
2013-09-06 10:54:00,88.0,-99.9,0.00,South,190,16.0,19.0,-999,0.00,,,-99.99,,2013-09-06 15:54:00,
2013-09-06 10:59:00,88.0,-99.9,0.00,South,173,16.0,19.0,-999,0.00,,,-99.99,,2013-09-06 15:59:00,
2013-09-06 11:04:00,89.0,-99.9,0.00,South,180,15.0,19.0,-999,0.00,,,-99.99,,2013-09-06 16:04:00,
2013-09-06 11:09:00,90.0,-99.9,0.00,South,183,16.0,19.0,-999,0.00,,,-99.99,,2013-09-06 16:09:00,
2013-09-06 11:14:00,90.0,-99.9,0.00,South,190,17.0,18.0,-999,0.00,,,-99.99,,2013-09-06 16:14:00,
2013-09-06 11:19:00,90.0,-99.9,0.00,South,190,16.0,18.0,-999,0.00,,,-99.99,,2013-09-06 16:19:00,
2013-09-06 11:24:00,90.0,-99.9,0.00,SSW,192,17.0,18.0,-999,0.00,,,-99.99,,2013-09-06 16:24:00,
2013-09-06 11:29:00,91.0,-99.9,0.00,SSW,212,17.0,20.0,-999,0.00,,,-99.99,,2013-09-06 16:29:00,
2013-09-06 11:34:00,92.0,-99.9,0.00,SSW,202,16.0,18.0,-999,0.00,,,-99.99,,2013-09-06 16:34:00,
2013-09-06 11:39:00,93.0,-99.9,0.00,South,188,16.0,18.0,-999,0.00,,,-99.99,,2013-09-06 16:39:00,
2013-09-06 11:44:00,92.0,-99.9,0.00,SSW,195,17.0,20.0,-999,0.00,,,-99.99,,2013-09-06 16:44:00,
2013-09-06 11:49:00,93.0,-99.9,0.00,South,185,17.0,21.0,-999,0.00,,,-99.99,,2013-09-06 16:49:00,
2013-09-06 11:54:00,94.0,-99.9,0.00,SSW,196,17.0,20.0,-999,0.00,,,-99.99,,2013-09-06 16:54:00,
2013-09-06 11:59:00,94.0,-99.9,0.00,SSW,193,16.0,19.0,-999,0.00,,,-99.99,,2013-09-06 16:59:00,
2013-09-06 12:04:00,94.0,-99.9,0.00,SSW,212,15.0,18.0,-999,0.00,,,-99.99,,2013-09-06 17:04:00,
2013-09-06 12:09:00,95.0,-99.9,0.00,South,183,16.0,18.0,-999,0.00,,,-99.99,,2013-09-06 17:09:00,
2013-09-06 12:14:00,95.0,-99.9,0.00,South,186,16.0,20.0,-999,0.00,,,-99.99,,2013-09-06 17:14:00,
2013-09-06 12:19:00,95.0,-99.9,0.00,SSW,203,14.0,18.0,-999,0.00,,,-99.99,,2013-09-06 17:19:00,
2013-09-06 12:24:00,97.0,-99.9,0.00,South,186,15.0,18.0,-999,0.00,,,-99.99,,2013-09-06 17:24:00,
2013-09-06 12:29:00,96.0,-99.9,0.00,SSW,192,13.0,16.0,-999,0.00,,,-99.99,,2013-09-06 17:29:00,
2013-09-06 12:34:00,96.0,-99.9,0.00,SSW,204,15.0,18.0,-999,0.00,,,-99.99,,2013-09-06 17:34:00,
2013-09-06 12:39:00,97.0,-99.9,0.00,SSW,203,14.0,17.0,-999,0.00,,,-99.99,,2013-09-06 17:39:00,
2013-09-06 12:44:00,97.0,-99.9,0.00,South,188,16.0,19.0,-999,0.00,,,-99.99,,2013-09-06 17:44:00,
2013-09-06 12:49:00,96.0,-99.9,0.00,South,175,15.0,17.0,-999,0.00,,,-99.99,,2013-09-06 17:49:00,
2013-09-06 12:54:00,97.0,-99.9,0.00,South,182,16.0,19.0,-999,0.00,,,-99.99,,2013-09-06 17:54:00,
2013-09-06 12:59:00,97.0,-99.9,0.00,South,176,17.0,20.0,-999,0.00,,,-99.99,,2013-09-06 17:59:00,
2013-09-06 13:04:00,99.0,-99.9,0.00,South,171,16.0,22.0,-999,0.00,,,-99.99,,2013-09-06 18:04:00,
2013-09-06 13:09:00,99.0,-99.9,0.00,South,189,16.0,20.0,-999,0.00,,,-99.99,,2013-09-06 18:09:00,
2013-09-06 13:14:00,98.0,-99.9,0.00,SSW,193,16.0,21.0,-999,0.00,,,-99.99,,2013-09-06 18:14:00,
2013-09-06 13:19:00,99.0,-99.9,0.00,SW,216,15.0,18.0,-999,0.00,,,-99.99,,2013-09-06 18:19:00,
2013-09-06 13:24:00,99.0,-99.9,0.00,South,172,19.0,21.0,-999,0.00,,,-99.99,,2013-09-06 18:24:00,
2013-09-06 13:29:00,99.0,-99.9,0.00,SSW,199,18.0,22.0,-999,0.00,,,-99.99,,2013-09-06 18:29:00,
2013-09-06 13:34:00,99.0,-99.9,0.00,South,179,16.0,20.0,-999,0.00,,,-99.99,,2013-09-06 18:34:00,
2013-09-06 13:39:00,100.0,-99.9,0.00,South,182,17.0,21.0,-999,0.00,,,-99.99,,2013-09-06 18:39:00,
2013-09-06 13:44:00,100.0,-99.9,0.00,South,180,18.0,21.0,-999,0.00,,,-99.99,,2013-09-06 18:44:00,
2013-09-06 13:49:00,99.0,-99.9,0.00,SSW,195,16.0,20.0,-999,0.00,,,-99.99,,2013-09-06 18:49:00,
2013-09-06 13:54:00,99.0,-99.9,0.00,SSW,206,16.0,19.0,-999,0.00,,,-99.99,,2013-09-06 18:54:00,
2013-09-06 13:59:00,100.0,-99.9,0.00,SSE,165,17.0,20.0,-999,0.00,,,-99.99,,2013-09-06 18:59:00,
2013-09-06 14:04:00,99.0,-99.9,0.00,SSW,209,16.0,18.0,-999,0.00,,,-99.99,,2013-09-06 19:04:00,
2013-09-06 14:09:00,100.0,-99.9,0.00,SSW,197,17.0,20.0,-999,0.00,,,-99.99,,2013-09-06 19:09:00,
2013-09-06 14:14:00,100.0,-99.9,0.00,SSW,199,16.0,18.0,-999,0.00,,,-99.99,,2013-09-06 19:14:00,
2013-09-06 14:19:00,100.0,-99.9,0.00,SSW,202,17.0,21.0,-999,0.00,,,-99.99,,2013-09-06 19:19:00,
2013-09-06 14:24:00,100.0,-99.9,0.00,South,173,18.0,21.0,-999,0.00,,,-99.99,,2013-09-06 19:24:00,
2013-09-06 14:29:00,101.0,-99.9,0.00,South,169,19.0,22.0,-999,0.00,,,-99.99,,2013-09-06 19:29:00,
2013-09-06 14:34:00,101.0,-99.9,0.00,South,178,17.0,21.0,-999,0.00,,,-99.99,,2013-09-06 19:34:00,
2013-09-06 14:39:00,101.0,-99.9,0.00,South,188,18.0,21.0,-999,0.00,,,-99.99,,2013-09-06 19:39:00,
2013-09-06 14:44:00,101.0,-99.9,0.00,SSE,151,17.0,20.0,-999,0.00,,,-99.99,,2013-09-06 19:44:00,
2013-09-06 14:49:00,100.0,-99.9,0.00,South,185,17.0,20.0,-999,0.00,,,-99.99,,2013-09-06 19:49:00,
2013-09-06 14:54:00,101.0,-99.9,0.00,South,188,16.0,19.0,-999,0.00,,,-99.99,,2013-09-06 19:54:00,
2013-09-06 14:59:00,102.0,-99.9,0.00,SSE,168,17.0,20.0,-999,0.00,,,-99.99,,2013-09-06 19:59:00,
2013-09-06 15:04:00,101.0,-99.9,0.00,SSE,149,18.0,22.0,-999,0.00,,,-99.99,,2013-09-06 20:04:00,
2013-09-06 15:09:00,102.0,-99.9,0.00,SSE,165,19.0,22.0,-999,0.00,,,-99.99,,2013-09-06 20:09:00,
2013-09-06 15:14:00,102.0,-99.9,0.00,SSE,154,20.0,24.0,-999,0.00,,,-99.99,,2013-09-06 20:14:00,
2013-09-06 15:19:00,101.0,-99.9,0.00,South,176,19.0,22.0,-999,0.00,,,-99.99,,2013-09-06 20:19:00,
2013-09-06 15:24:00,101.0,-99.9,0.00,South,188,18.0,23.0,-999,0.00,,,-99.99,,2013-09-06 20:24:00,
2013-09-06 15:29:00,100.0,-99.9,0.00,South,186,19.0,22.0,-999,0.00,,,-99.99,,2013-09-06 20:29:00,
2013-09-06 15:34:00,101.0,-99.9,0.00,SSE,168,18.0,21.0,-999,0.00,,,-99.99,,2013-09-06 20:34:00,
2013-09-06 15:39:00,101.0,-99.9,0.00,South,173,19.0,23.0,-999,0.00,,,-99.99,,2013-09-06 20:39:00,
2013-09-06 15:44:00,101.0,-99.9,0.00,South,185,19.0,22.0,-999,0.00,,,-99.99,,2013-09-06 20:44:00,
2013-09-06 15:49:00,102.0,-99.9,0.00,South,176,16.0,20.0,-999,0.00,,,-99.99,,2013-09-06 20:49:00,
2013-09-06 15:54:00,101.0,-99.9,0.00,South,176,19.0,22.0,-999,0.00,,,-99.99,,2013-09-06 20:54:00,
2013-09-06 16:04:00,101.0,-99.9,0.00,SSE,148,17.0,19.0,-999,0.00,,,-99.99,,2013-09-06 21:04:00,
2013-09-06 16:09:00,101.0,-99.9,0.00,South,176,16.0,22.0,-999,0.00,,,-99.99,,2013-09-06 21:09:00,
2013-09-06 16:14:00,101.0,-99.9,0.00,SSE,154,20.0,24.0,-999,0.00,,,-99.99,,2013-09-06 21:14:00,
2013-09-06 16:19:00,101.0,-99.9,0.00,SSE,166,19.0,22.0,-999,0.00,,,-99.99,,2013-09-06 21:19:00,
2013-09-06 16:24:00,102.0,-99.9,0.00,SSE,164,18.0,21.0,-999,0.00,,,-99.99,,2013-09-06 21:24:00,
2013-09-06 16:29:00,101.0,-99.9,0.00,SSE,168,18.0,21.0,-999,0.00,,,-99.99,,2013-09-06 21:29:00,
2013-09-06 16:34:00,101.0,-99.9,0.00,South,171,18.0,22.0,-999,0.00,,,-99.99,,2013-09-06 21:34:00,
2013-09-06 16:39:00,100.0,-99.9,0.00,SSE,155,19.0,23.0,-999,0.00,,,-99.99,,2013-09-06 21:39:00,
2013-09-06 16:44:00,101.0,-99.9,0.00,SSE,165,18.0,22.0,-999,0.00,,,-99.99,,2013-09-06 21:44:00,
2013-09-06 16:49:00,101.0,-99.9,0.00,South,178,16.0,19.0,-999,0.00,,,-99.99,,2013-09-06 21:49:00,
2013-09-06 16:54:00,101.0,-99.9,0.00,SSW,193,17.0,21.0,-999,0.00,,,-99.99,,2013-09-06 21:54:00,
2013-09-06 16:59:00,101.0,-99.9,0.00,South,175,18.0,21.0,-999,0.00,,,-99.99,,2013-09-06 21:59:00,
2013-09-06 17:04:00,101.0,-99.9,0.00,South,175,19.0,21.0,-999,0.00,,,-99.99,,2013-09-06 22:04:00,
2013-09-06 17:09:00,101.0,-99.9,0.00,South,173,18.0,21.0,-999,0.00,,,-99.99,,2013-09-06 22:09:00,
2013-09-06 17:14:00,100.0,-99.9,0.00,South,172,16.0,19.0,-999,0.00,,,-99.99,,2013-09-06 22:14:00,
2013-09-06 17:19:00,100.0,-99.9,0.00,SSE,161,19.0,22.0,-999,0.00,,,-99.99,,2013-09-06 22:19:00,
2013-09-06 17:24:00,101.0,-99.9,0.00,SSE,165,17.0,20.0,-999,0.00,,,-99.99,,2013-09-06 22:24:00,
2013-09-06 17:29:00,101.0,-99.9,0.00,South,178,16.0,18.0,-999,0.00,,,-99.99,,2013-09-06 22:29:00,
2013-09-06 17:34:00,100.0,-99.9,0.00,SSW,193,17.0,19.0,-999,0.00,,,-99.99,,2013-09-06 22:34:00,
2013-09-06 17:39:00,100.0,-99.9,0.00,South,175,17.0,22.0,-999,0.00,,,-99.99,,2013-09-06 22:39:00,
2013-09-06 17:44:00,99.0,-99.9,0.00,SSE,162,18.0,22.0,-999,0.00,,,-99.99,,2013-09-06 22:44:00,
2013-09-06 17:49:00,100.0,-99.9,0.00,SSE,158,16.0,19.0,-999,0.00,,,-99.99,,2013-09-06 22:49:00,
2013-09-06 17:54:00,100.0,-99.9,0.00,South,173,18.0,21.0,-999,0.00,,,-99.99,,2013-09-06 22:54:00,
2013-09-06 17:59:00,100.0,-99.9,0.00,SSE,154,15.0,18.0,-999,0.00,,,-99.99,,2013-09-06 22:59:00,
2013-09-06 18:04:00,100.0,-99.9,0.00,South,175,17.0,18.0,-999,0.00,,,-99.99,,2013-09-06 23:04:00,
2013-09-06 18:09:00,99.0,-99.9,0.00,SSE,168,18.0,20.0,-999,0.00,,,-99.99,,2013-09-06 23:09:00,
2013-09-06 18:14:00,99.0,-99.9,0.00,South,171,17.0,20.0,-999,0.00,,,-99.99,,2013-09-06 23:14:00,
2013-09-06 18:19:00,99.0,-99.9,0.00,South,183,17.0,20.0,-999,0.00,,,-99.99,,2013-09-06 23:19:00,
2013-09-06 18:24:00,99.0,-99.9,0.00,SSE,165,17.0,21.0,-999,0.00,,,-99.99,,2013-09-06 23:24:00,
2013-09-06 18:29:00,99.0,-99.9,0.00,SSE,154,18.0,20.0,-999,0.00,,,-99.99,,2013-09-06 23:29:00,
2013-09-06 18:34:00,99.0,-99.9,0.00,South,189,17.0,20.0,-999,0.00,,,-99.99,,2013-09-06 23:34:00,
2013-09-06 18:39:00,98.0,-99.9,0.00,South,172,17.0,20.0,-999,0.00,,,-99.99,,2013-09-06 23:39:00,
2013-09-06 18:44:00,98.0,-99.9,0.00,SSE,159,16.0,20.0,-999,0.00,,,-99.99,,2013-09-06 23:44:00,
2013-09-06 18:49:00,98.0,-99.9,0.00,South,178,17.0,21.0,-999,0.00,,,-99.99,,2013-09-06 23:49:00,
2013-09-06 18:54:00,98.0,-99.9,0.00,South,173,15.0,18.0,-999,0.00,,,-99.99,,2013-09-06 23:54:00,
2013-09-06 18:59:00,97.0,-99.9,0.00,South,173,17.0,19.0,-999,0.00,,,-99.99,,2013-09-06 23:59:00,
2013-09-06 19:04:00,97.0,-99.9,0.00,South,169,17.0,19.0,-999,0.00,,,-99.99,,2013-09-07 00:04:00,
2013-09-06 19:09:00,97.0,-99.9,0.00,SSE,165,17.0,19.0,-999,0.00,,,-99.99,,2013-09-07 00:09:00,
2013-09-06 19:14:00,96.0,-99.9,0.00,SSW,196,15.0,18.0,-999,0.00,,,-99.99,,2013-09-07 00:14:00,
2013-09-06 19:19:00,96.0,-99.9,0.00,South,185,14.0,17.0,-999,0.00,,,-99.99,,2013-09-07 00:19:00,
2013-09-06 19:24:00,95.0,-99.9,0.00,South,178,13.0,15.0,-999,0.00,,,-99.99,,2013-09-07 00:24:00,
2013-09-06 19:29:00,95.0,-99.9,0.00,South,172,13.0,15.0,-999,0.00,,,-99.99,,2013-09-07 00:29:00,
2013-09-06 19:34:00,94.0,-99.9,0.00,South,179,13.0,14.0,-999,0.00,,,-99.99,,2013-09-07 00:34:00,
2013-09-06 19:39:00,93.0,-99.9,0.00,South,178,12.0,15.0,-999,0.00,,,-99.99,,2013-09-07 00:39:00,
2013-09-06 19:44:00,93.0,-99.9,0.00,South,182,12.0,14.0,-999,0.00,,,-99.99,,2013-09-07 00:44:00,
2013-09-06 19:49:00,91.0,-99.9,0.00,SSE,166,11.0,13.0,-999,0.00,,,-99.99,,2013-09-07 00:49:00,
2013-09-06 19:54:00,91.0,-99.9,0.00,South,180,11.0,14.0,-999,0.00,,,-99.99,,2013-09-07 00:54:00,
2013-09-06 19:59:00,90.0,-99.9,0.00,South,172,12.0,14.0,-999,0.00,,,-99.99,,2013-09-07 00:59:00,
2013-09-06 20:04:00,89.0,-99.9,0.00,South,171,11.0,13.0,-999,0.00,,,-99.99,,2013-09-07 01:04:00,
2013-09-06 20:09:00,88.0,-99.9,0.00,SSE,161,11.0,12.0,-999,0.00,,,-99.99,,2013-09-07 01:09:00,
2013-09-06 20:14:00,88.0,-99.9,0.00,SSE,168,11.0,12.0,-999,0.00,,,-99.99,,2013-09-07 01:14:00,
2013-09-06 20:19:00,87.0,-99.9,0.00,South,171,11.0,12.0,-999,0.00,,,-99.99,,2013-09-07 01:19:00,
2013-09-06 20:24:00,86.0,-99.9,0.00,SSE,161,11.0,12.0,-999,0.00,,,-99.99,,2013-09-07 01:24:00,
2013-09-06 20:29:00,86.0,-99.9,0.00,SSE,161,10.0,11.0,-999,0.00,,,-99.99,,2013-09-07 01:29:00,
2013-09-06 20:34:00,85.0,-99.9,0.00,SSE,164,11.0,12.0,-999,0.00,,,-99.99,,2013-09-07 01:34:00,
2013-09-06 20:39:00,85.0,-99.9,0.00,SSE,151,11.0,12.0,-999,0.00,,,-99.99,,2013-09-07 01:39:00,
2013-09-06 20:44:00,84.0,-99.9,0.00,SSE,168,11.0,11.0,-999,0.00,,,-99.99,,2013-09-07 01:44:00,
2013-09-06 20:49:00,84.0,-99.9,0.00,SSE,162,10.0,12.0,-999,0.00,,,-99.99,,2013-09-07 01:49:00,
2013-09-06 20:54:00,83.0,-99.9,0.00,SSE,165,11.0,11.0,-999,0.00,,,-99.99,,2013-09-07 01:54:00,
2013-09-06 20:59:00,83.0,-99.9,0.00,South,175,11.0,11.0,-999,0.00,,,-99.99,,2013-09-07 01:59:00,
2013-09-06 21:04:00,82.0,-99.9,0.00,South,169,11.0,11.0,-999,0.00,,,-99.99,,2013-09-07 02:04:00,
2013-09-06 21:09:00,82.0,-99.9,0.00,South,173,11.0,11.0,-999,0.00,,,-99.99,,2013-09-07 02:09:00,
2013-09-06 21:14:00,82.0,-99.9,0.00,South,171,11.0,12.0,-999,0.00,,,-99.99,,2013-09-07 02:14:00,
2013-09-06 21:19:00,82.0,-99.9,0.00,South,178,11.0,12.0,-999,0.00,,,-99.99,,2013-09-07 02:19:00,
2013-09-06 21:24:00,82.0,-99.9,0.00,South,175,11.0,12.0,-999,0.00,,,-99.99,,2013-09-07 02:24:00,
2013-09-06 21:29:00,82.0,-99.9,0.00,South,176,11.0,12.0,-999,0.00,,,-99.99,,2013-09-07 02:29:00,
2013-09-06 21:34:00,82.0,-99.9,0.00,South,178,12.0,13.0,-999,0.00,,,-99.99,,2013-09-07 02:34:00,
2013-09-06 21:39:00,82.0,-99.9,0.00,South,178,12.0,13.0,-999,0.00,,,-99.99,,2013-09-07 02:39:00,
2013-09-06 21:44:00,82.0,-99.9,0.00,South,171,12.0,13.0,-999,0.00,,,-99.99,,2013-09-07 02:44:00,
2013-09-06 21:49:00,81.0,-99.9,0.00,South,171,12.0,14.0,-999,0.00,,,-99.99,,2013-09-07 02:49:00,
2013-09-06 21:54:00,81.0,-99.9,0.00,South,172,12.0,13.0,-999,0.00,,,-99.99,,2013-09-07 02:54:00,
2013-09-06 21:59:00,80.0,-99.9,0.00,SSE,158,12.0,13.0,-999,0.00,,,-99.99,,2013-09-07 02:59:00,
2013-09-06 22:04:00,79.0,-99.9,0.00,SSE,165,12.0,14.0,-999,0.00,,,-99.99,,2013-09-07 03:04:00,
2013-09-06 22:09:00,78.0,-99.9,0.00,SSE,159,12.0,13.0,-999,0.00,,,-99.99,,2013-09-07 03:09:00,
2013-09-06 22:14:00,78.0,-99.9,0.00,SSE,159,11.0,12.0,-999,0.00,,,-99.99,,2013-09-07 03:14:00,
2013-09-06 22:19:00,78.0,-99.9,0.00,SSE,164,11.0,12.0,-999,0.00,,,-99.99,,2013-09-07 03:19:00,
2013-09-06 22:24:00,78.0,-99.9,0.00,South,171,12.0,13.0,-999,0.00,,,-99.99,,2013-09-07 03:24:00,
2013-09-06 22:29:00,79.0,-99.9,0.00,South,171,12.0,13.0,-999,0.00,,,-99.99,,2013-09-07 03:29:00,
2013-09-06 22:34:00,78.0,-99.9,0.00,South,171,12.0,13.0,-999,0.00,,,-99.99,,2013-09-07 03:34:00,
2013-09-06 22:39:00,77.0,-99.9,0.00,SSE,164,12.0,13.0,-999,0.00,,,-99.99,,2013-09-07 03:39:00,
2013-09-06 22:44:00,77.0,-99.9,0.00,South,172,12.0,13.0,-999,0.00,,,-99.99,,2013-09-07 03:44:00,
2013-09-06 22:49:00,77.0,-99.9,0.00,SSE,166,12.0,13.0,-999,0.00,,,-99.99,,2013-09-07 03:49:00,
2013-09-06 22:54:00,77.0,-99.9,0.00,South,175,12.0,13.0,-999,0.00,,,-99.99,,2013-09-07 03:54:00,
2013-09-06 22:59:00,77.0,-99.9,0.00,South,180,12.0,14.0,-999,0.00,,,-99.99,,2013-09-07 03:59:00,
2013-09-06 23:04:00,77.0,-99.9,0.00,South,178,12.0,13.0,-999,0.00,,,-99.99,,2013-09-07 04:04:00,
2013-09-06 23:09:00,78.0,-99.9,0.00,South,182,13.0,15.0,-999,0.00,,,-99.99,,2013-09-07 04:09:00,
2013-09-06 23:14:00,78.0,-99.9,0.00,South,183,13.0,15.0,-999,0.00,,,-99.99,,2013-09-07 04:14:00,
2013-09-06 23:19:00,79.0,-99.9,0.00,South,171,14.0,15.0,-999,0.00,,,-99.99,,2013-09-07 04:19:00,
2013-09-06 23:24:00,79.0,-99.9,0.00,South,182,14.0,15.0,-999,0.00,,,-99.99,,2013-09-07 04:24:00,
2013-09-06 23:29:00,79.0,-99.9,0.00,South,183,14.0,16.0,-999,0.00,,,-99.99,,2013-09-07 04:29:00,
2013-09-06 23:34:00,79.0,-99.9,0.00,South,183,14.0,16.0,-999,0.00,,,-99.99,,2013-09-07 04:34:00,
2013-09-06 23:39:00,78.0,-99.9,0.00,South,190,15.0,16.0,-999,0.00,,,-99.99,,2013-09-07 04:39:00,
2013-09-06 23:44:00,79.0,-99.9,0.00,South,182,15.0,16.0,-999,0.00,,,-99.99,,2013-09-07 04:44:00,
2013-09-06 23:49:00,79.0,-99.9,0.00,South,186,15.0,17.0,-999,0.00,,,-99.99,,2013-09-07 04:49:00,
2013-09-06 23:54:00,79.0,-99.9,0.00,South,182,14.0,17.0,-999,0.00,,,-99.99,,2013-09-07 04:54:00,
2013-09-06 23:59:00,79.0,-99.9,0.00,South,182,15.0,17.0,-999,0.00,,,-99.99,,2013-09-07 04:59:00,